Location: Avon School (historical)
(37.7514°N, 90.2201°W)
Time: 00:21:30
(UTC+00:00)

Explorer 7 - Pass Details

Date: 23 December 2025
Orbit: 433 x 550 km, 50.2° (Epoch: 13 January)

Event Time Altitude Azimuth Distance (km) Brightness Sun altitude
Rises 00:42:44 0° 313° (NW) 2,445 10.6 -22.2°
Reaches altitude 10° 00:45:05 10° 325° (NW) 1,558 9.4 -22.7°
Enters shadow 00:46:05 16° 336° (NNW) 1,221 8.7 -22.9°
